Hourly Weather Gremyachevo

Today, 14 July, Tuesday

Time Temperature Precipitation Wind Pressure Humidity
00:00 +16°C° 0 mm 3 mps 740 mmHg 97%
01:00 +15°C° 0 mm 4 mps 740 mmHg 97%
02:00 +16°C° 0 mm 3 mps 740 mmHg 98%
03:00 +15°C° 0.5 mm 4 mps 740 mmHg 98%
04:00 +15°C° 0.5 mm 4 mps 740 mmHg 97%
05:00 +16°C° 0.5 mm 5 mps 740 mmHg 96%
06:00 +16°C° 0.9 mm 5 mps 739 mmHg 96%
07:00 +16°C° 0.9 mm 5 mps 739 mmHg 96%
08:00 +16°C° 0.9 mm 6 mps 739 mmHg 95%
09:00 +16°C° 0.9 mm 6 mps 739 mmHg 95%
10:00 +16°C° 0.9 mm 6 mps 738 mmHg 94%
11:00 +16°C° 0.9 mm 7 mps 738 mmHg 94%
12:00 +16°C° 0.9 mm 7 mps 737 mmHg 93%
13:00 +16°C° 0.9 mm 8 mps 737 mmHg 93%
14:00 +16°C° 0.9 mm 8 mps 736 mmHg 93%
15:00 +17°C° 3 mm 8 mps 735 mmHg 94%
16:00 +17°C° 3 mm 9 mps 734 mmHg 95%
17:00 +17°C° 3 mm 9 mps 733 mmHg 96%
18:00 +18°C° 2.7 mm 8 mps 733 mmHg 96%
19:00 +19°C° 2.7 mm 6 mps 733 mmHg 96%
20:00 +20°C° 2.7 mm 5 mps 732 mmHg 96%
21:00 +19°C° 0.1 mm 5 mps 732 mmHg 96%
22:00 +19°C° 0.1 mm 4 mps 731 mmHg 97%
23:00 +18°C° 0.1 mm 3 mps 731 mmHg 97%

Tomorrow, 15 July, Wednesday

Time Temperature Precipitation Wind Pressure Humidity
00:00 +18°C° 0 mm 4 mps 731 mmHg 97%
01:00 +16°C° 0 mm 5 mps 731 mmHg 96%
02:00 +15°C° 0 mm 5 mps 731 mmHg 95%
03:00 +15°C° 0 mm 5 mps 731 mmHg 95%
04:00 +15°C° 0 mm 6 mps 731 mmHg 94%
05:00 +15°C° 0 mm 6 mps 731 mmHg 94%
06:00 +15°C° 0 mm 6 mps 731 mmHg 92%
07:00 +15°C° 0 mm 7 mps 731 mmHg 91%
08:00 +15°C° 0 mm 7 mps 731 mmHg 89%
09:00 +14°C° 0.5 mm 7 mps 732 mmHg 90%
10:00 +12°C° 0.5 mm 7 mps 732 mmHg 91%
11:00 +12°C° 0.5 mm 7 mps 732 mmHg 93%
12:00 +12°C° 0.9 mm 7 mps 732 mmHg 93%
13:00 +11°C° 0.9 mm 7 mps 733 mmHg 94%
14:00 +11°C° 0.9 mm 7 mps 733 mmHg 94%
15:00 +11°C° 0.5 mm 7 mps 733 mmHg 95%
16:00 +11°C° 0.5 mm 6 mps 734 mmHg 95%
17:00 +11°C° 0.5 mm 6 mps 734 mmHg 96%
18:00 +12°C° 0.3 mm 5 mps 734 mmHg 95%
19:00 +12°C° 0.3 mm 5 mps 734 mmHg 95%
20:00 +12°C° 0.3 mm 5 mps 735 mmHg 95%
21:00 +12°C° 0.1 mm 4 mps 735 mmHg 95%
22:00 +12°C° 0.1 mm 4 mps 735 mmHg 96%
23:00 +12°C° 0.1 mm 4 mps 735 mmHg 97%

Day after tomorrow, 16 July, Thursday

Time Temperature Precipitation Wind Pressure Humidity
00:00 +12°C° 0.7 mm 5 mps 736 mmHg 96%
01:00 +11°C° 0.7 mm 6 mps 736 mmHg 96%
02:00 +13°C° 0.7 mm 6 mps 736 mmHg 95%
03:00 +11°C° 0.3 mm 6 mps 736 mmHg 95%
04:00 +11°C° 0.3 mm 6 mps 737 mmHg 95%
05:00 +11°C° 0.3 mm 6 mps 737 mmHg 95%
06:00 +11°C° 0.1 mm 6 mps 737 mmHg 95%
07:00 +11°C° 0.1 mm 6 mps 738 mmHg 95%
08:00 +11°C° 0.1 mm 6 mps 738 mmHg 94%
09:00 +13°C° 0.1 mm 6 mps 738 mmHg 94%
10:00 +13°C° 0.1 mm 5 mps 738 mmHg 93%
11:00 +13°C° 0.1 mm 5 mps 739 mmHg 92%
12:00 +14°C° 0.1 mm 5 mps 739 mmHg 92%
13:00 +14°C° 0.1 mm 5 mps 740 mmHg 91%
14:00 +14°C° 0.1 mm 4 mps 740 mmHg 91%
15:00 +14°C° 0.1 mm 4 mps 740 mmHg 91%
16:00 +16°C° 0.1 mm 3 mps 740 mmHg 90%
17:00 +16°C° 0.1 mm 3 mps 740 mmHg 90%
18:00 +16°C° 0 mm 3 mps 740 mmHg 91%
19:00 +14°C° 0 mm 3 mps 741 mmHg 92%
20:00 +14°C° 0 mm 3 mps 741 mmHg 94%
21:00 +13°C° 0 mm 3 mps 741 mmHg 94%
22:00 +13°C° 0 mm 3 mps 741 mmHg 94%
23:00 +12°C° 0 mm 3 mps 741 mmHg 94%

17 July, Friday

Time Temperature Precipitation Wind Pressure Humidity
00:00 +12°C° 0 mm 3 mps 741 mmHg 94%
01:00 +12°C° 0 mm 3 mps 741 mmHg 94%
02:00 +13°C° 0 mm 2 mps 741 mmHg 94%
03:00 +13°C° 0 mm 2 mps 741 mmHg 94%
04:00 +13°C° 0 mm 2 mps 742 mmHg 94%
05:00 +13°C° 0 mm 2 mps 742 mmHg 94%
06:00 +14°C° 0 mm 3 mps 742 mmHg 89%
07:00 +16°C° 0 mm 3 mps 742 mmHg 85%
08:00 +18°C° 0 mm 3 mps 742 mmHg 80%
09:00 +19°C° 0.1 mm 4 mps 742 mmHg 76%
10:00 +20°C° 0.1 mm 4 mps 743 mmHg 71%
11:00 +21°C° 0.1 mm 4 mps 743 mmHg 67%
12:00 +21°C° 0.1 mm 4 mps 743 mmHg 67%
13:00 +22°C° 0.1 mm 4 mps 743 mmHg 67%
14:00 +22°C° 0.1 mm 4 mps 742 mmHg 67%
15:00 +22°C° 0.1 mm 4 mps 743 mmHg 70%
16:00 +22°C° 0.1 mm 3 mps 743 mmHg 73%
17:00 +21°C° 0.1 mm 3 mps 743 mmHg 76%
18:00 +20°C° 0 mm 3 mps 743 mmHg 79%
19:00 +19°C° 0 mm 2 mps 743 mmHg 82%
20:00 +17°C° 0 mm 2 mps 744 mmHg 85%
21:00 +16°C° 0 mm 2 mps 744 mmHg 87%
22:00 +15°C° 0 mm 2 mps 744 mmHg 89%
23:00 +14°C° 0 mm 1 mps 744 mmHg 92%

18 July, Saturday

Time Temperature Precipitation Wind Pressure Humidity
00:00 +14°C° 0 mm 1 mps 744 mmHg 92%
01:00 +14°C° 0 mm 1 mps 745 mmHg 93%
02:00 +13°C° 0 mm 1 mps 745 mmHg 93%
03:00 +14°C° 0 mm 1 mps 745 mmHg 94%
04:00 +14°C° 0 mm 1 mps 745 mmHg 94%
05:00 +14°C° 0 mm 1 mps 746 mmHg 94%
06:00 +16°C° 0 mm 1 mps 746 mmHg 89%
07:00 +17°C° 0 mm 2 mps 746 mmHg 83%
08:00 +18°C° 0 mm 2 mps 746 mmHg 78%
09:00 +19°C° 0 mm 2 mps 746 mmHg 73%
10:00 +20°C° 0 mm 2 mps 746 mmHg 69%
11:00 +22°C° 0 mm 3 mps 746 mmHg 65%
12:00 +22°C° 0 mm 3 mps 746 mmHg 65%
13:00 +22°C° 0 mm 3 mps 746 mmHg 65%
14:00 +22°C° 0 mm 4 mps 746 mmHg 65%
15:00 +22°C° 0 mm 3 mps 746 mmHg 68%
16:00 +22°C° 0 mm 3 mps 746 mmHg 70%
17:00 +21°C° 0 mm 3 mps 746 mmHg 73%
18:00 +20°C° 0 mm 3 mps 747 mmHg 78%
19:00 +18°C° 0 mm 2 mps 747 mmHg 83%
20:00 +17°C° 0 mm 2 mps 747 mmHg 88%
21:00 +16°C° 0 mm 2 mps 747 mmHg 89%
22:00 +15°C° 0 mm 2 mps 747 mmHg 90%
23:00 +15°C° 0 mm 1 mps 747 mmHg 90%

19 July, Sunday

Time Temperature Precipitation Wind Pressure Humidity
00:00 +14°C° 0 mm 2 mps 747 mmHg 91%
01:00 +14°C° 0 mm 2 mps 747 mmHg 91%
02:00 +14°C° 0 mm 2 mps 747 mmHg 91%
03:00 +14°C° 0 mm 2 mps 747 mmHg 90%
04:00 +14°C° 0 mm 2 mps 747 mmHg 90%
05:00 +14°C° 0 mm 2 mps 747 mmHg 89%
06:00 +16°C° 0 mm 2 mps 747 mmHg 84%
07:00 +17°C° 0 mm 2 mps 747 mmHg 78%
08:00 +19°C° 0 mm 3 mps 747 mmHg 73%
09:00 +20°C° 0 mm 3 mps 747 mmHg 68%
10:00 +21°C° 0 mm 3 mps 747 mmHg 62%
11:00 +22°C° 0 mm 4 mps 747 mmHg 57%
12:00 +23°C° 0 mm 4 mps 746 mmHg 56%
13:00 +24°C° 0 mm 3 mps 746 mmHg 54%
14:00 +24°C° 0 mm 3 mps 746 mmHg 53%
15:00 +24°C° 0 mm 3 mps 745 mmHg 58%
16:00 +24°C° 0 mm 3 mps 745 mmHg 64%
17:00 +24°C° 0 mm 3 mps 745 mmHg 69%
18:00 +21°C° 0 mm 3 mps 745 mmHg 72%
19:00 +19°C° 0 mm 3 mps 744 mmHg 75%
20:00 +17°C° 0 mm 3 mps 744 mmHg 78%
21:00 +16°C° 0 mm 2 mps 744 mmHg 80%
22:00 +16°C° 0 mm 2 mps 744 mmHg 82%
23:00 +15°C° 0 mm 2 mps 744 mmHg 85%
Show more